Вернуться в каталог

STARLINK-36487

АктивенСвязьVLEO
NORAD 67416·PAYLOAD·🇺🇸 United States

Запущен Jan 12, 2026 с Cape Canaveral Space Force Station

Loading…

Ближайшие Пролёты (ближайшие 24 часа)

TLE

СвежийSource: CelesTrak SupGP

Эпоха: Sep 14, 2026, 22:41 UTC

1 67416C 26005N   26257.94562500  .00028725  00000+0  10405-2 0  2572
2 67416  43.0004 249.4409 0001402 260.6478 241.1990 15.27559685    19

Отслеживайте STARLINK-36487 в реальном времени с AllMySat

Download on the App Store